W5TTY Weather Reports


Display with metric or nautical units.
time (UTC)temp
F
wind
direction
speed
MPH
gust
MPH
rain 1hr
in
rain 24hr
in
rain mn
in
humidity
%
barometer
mb
20260504020831 66 192 3.0 6.0 0.00 0.00 0.00 57 1017.0
20260504020339 66 161 3.0 6.0 0.00 0.00 0.00 57 1017.0
20260504015819 67 171 3.0 5.0 0.00 0.00 0.00 57 1016.9
20260504015331 67 170 2.0 5.0 0.00 0.00 0.00 57 1016.9
20260504014840 68 173 2.0 4.0 0.00 0.00 0.00 57 1016.9
20260504014322 68 160 2.0 5.0 0.00 0.00 0.00 57 1016.9
20260504013824 68 174 2.0 4.0 0.00 0.00 0.00 57 1016.9
20260504013328 69 149 2.0 5.0 0.00 0.00 0.00 57 1016.8
20260504012846 69 175 0.0 4.0 0.00 0.00 0.00 57 1016.8
20260504012347 70 170 2.0 6.0 0.00 0.00 0.00 57 1016.8
20260504011827 70 159 3.0 6.0 0.00 0.00 0.00 57 1016.7
20260504011334 71 155 3.0 7.0 0.00 0.00 0.00 57 1016.7
20260504010843 71 172 3.0 7.0 0.00 0.00 0.00 57 1016.7
20260504010348 72 182 2.0 5.0 0.00 0.00 0.00 57 1016.9
20260504005840 72 183 3.0 4.0 0.00 0.00 0.00 58 1016.9
20260504005324 73 188 2.0 5.0 0.00 0.00 0.00 58 1016.8
20260504004824 73 188 1.0 5.0 0.00 0.00 0.00 58 1016.6
20260504004352 73 174 3.0 5.0 0.00 0.00 0.00 58 1016.7
20260504003858 74 173 2.0 6.0 0.00 0.00 0.00 58 1016.8
20260504003323 74 171 3.0 6.0 0.00 0.00 0.00 58 1016.9
20260504002832 75 186 2.0 4.0 0.00 0.00 0.00 59 1016.8
20260504002318 75 186 2.0 4.0 0.00 0.00 0.00 59 1016.9
20260504001822 75 184 3.0 7.0 0.00 0.00 0.00 59 1016.9
20260504001325 75 150 3.0 9.0 0.00 0.00 0.00 59 1017.0
20260504000837 76 183 3.0 9.0 0.00 0.00 0.00 60 1017.0
20260504000342 76 171 3.0 8.0 0.00 0.00 0.00 60 1017.0
20260503235820 76 197 4.0 7.0 0.00 0.00 0.00 60 1017.1
20260503235330 76 185 2.0 8.0 0.00 0.00 0.00 60 1017.2
20260503234836 77 219 5.0 8.0 0.00 0.00 0.00 60 1017.2
20260503234320 77 201 3.0 9.0 0.00 0.00 0.00 61 1017.3
20260503233828 77 204 3.0 12.0 0.00 0.00 0.00 61 1017.3
20260503232823 77 229 6.0 11.0 0.00 0.00 0.00 62 1017.3
20260503232327 77 166 4.0 9.0 0.00 0.00 0.00 62 1017.3
20260503231826 77 188 4.0 13.0 0.00 0.00 0.00 62 1017.3
20260503231333 77 136 6.0 13.0 0.00 0.00 0.00 62 1017.3
20260503230819 77 172 4.0 10.0 0.00 0.00 0.00 62 1017.2
20260503230322 77 173 4.0 10.0 0.00 0.00 0.00 63 1017.3
20260503225856 77 142 3.0 10.0 0.00 0.00 0.00 63 1017.3
20260503225322 77 171 5.0 11.0 0.00 0.00 0.00 63 1017.4
20260503224825 77 137 4.0 11.0 0.00 0.00 0.00 63 1017.4
20260503224328 77 152 6.0 13.0 0.00 0.00 0.00 63 1017.4
20260503223859 77 150 4.0 13.0 0.00 0.00 0.00 63 1017.5
20260503223345 78 128 3.0 11.0 0.00 0.00 0.00 64 1017.5
20260503222829 78 144 3.0 9.0 0.00 0.00 0.00 64 1017.4
20260503222333 78 136 3.0 9.0 0.00 0.00 0.00 65 1017.6
20260503221821 78 146 4.0 10.0 0.00 0.00 0.00 65 1017.7
20260503221349 78 121 3.0 10.0 0.00 0.00 0.00 66 1017.6
20260503220835 78 130 3.0 12.0 0.00 0.00 0.00 66 1017.6
20260503220343 78 127 6.0 12.0 0.00 0.00 0.00 66 1017.8
20260503215828 78 169 3.0 12.0 0.00 0.00 0.00 66 1017.9
20260503215353 78 193 6.0 12.0 0.00 0.00 0.00 66 1018.0
20260503214839 78 197 5.0 10.0 0.00 0.00 0.00 67 1018.1
20260503214330 78 178 5.0 10.0 0.00 0.00 0.00 67 1018.2
20260503213833 78 198 5.0 11.0 0.00 0.00 0.00 67 1018.2
20260503213321 78 111 5.0 11.0 0.00 0.00 0.00 68 1018.2
20260503212830 78 192 6.0 12.0 0.00 0.00 0.00 68 1018.2
20260503212335 78 250 4.0 12.0 0.00 0.00 0.00 68 1018.3
20260503211820 78 150 3.0 10.0 0.00 0.00 0.00 68 1018.4
20260503211327 78 116 5.0 9.0 0.00 0.00 0.00 68 1018.5
20260503210832 78 159 5.0 12.0 0.00 0.00 0.00 69 1018.7
20260503210337 78 212 7.0 12.0 0.00 0.00 0.00 70 1018.8
20260503205823 78 186 4.0 10.0 0.00 0.00 0.00 70 1018.9
20260503205324 78 136 3.0 11.0 0.00 0.00 0.00 70 1018.9
20260503204833 78 150 5.0 14.0 0.00 0.00 0.00 71 1019.1
20260503204317 78 140 8.0 14.0 0.00 0.00 0.00 71 1019.0
20260503203824 78 187 5.0 10.0 0.00 0.00 0.00 71 1019.1
20260503203330 78 254 6.0 9.0 0.00 0.00 0.00 72 1019.2
20260503202833 78 261 2.0 9.0 0.00 0.00 0.00 72 1019.3
20260503202337 78 192 4.0 13.0 0.00 0.00 0.00 72 1019.5
20260503201848 78 161 8.0 13.0 0.00 0.00 0.00 73 1019.6
20260503201330 78 164 5.0 8.0 0.00 0.00 0.00 73 1019.6
20260503200837 78 147 4.0 9.0 0.00 0.00 0.00 74 1019.7
20260503200322 77 229 2.0 6.0 0.00 0.00 0.00 74 1019.7
20260503195829 78 229 2.0 11.0 0.00 0.00 0.00 74 1019.8
20260503195331 77 165 5.0 11.0 0.00 0.00 0.00 75 1019.9
20260503194837 77 171 5.0 10.0 0.00 0.00 0.00 75 1020.0
20260503194322 78 142 4.0 10.0 0.00 0.00 0.00 75 1020.1
20260503193824 77 247 3.0 12.0 0.00 0.00 0.00 76 1020.2
20260503193323 77 232 9.0 12.0 0.00 0.00 0.00 76 1020.2
20260503192839 76 219 5.0 9.0 0.00 0.00 0.00 76 1020.3
20260503192344 76 120 3.0 7.0 0.00 0.00 0.00 77 1020.3
20260503191830 77 246 3.0 12.0 0.00 0.00 0.00 77 1020.5
20260503191336 77 238 8.0 12.0 0.00 0.00 0.00 77 1020.5
20260503190844 77 256 4.0 10.0 0.00 0.00 0.00 78 1020.6
20260503190326 76 126 2.0 7.0 0.00 0.00 0.00 78 1020.7
20260503185831 77 137 3.0 10.0 0.00 0.00 0.00 79 1020.7
20260503185335 77 200 6.0 10.0 0.00 0.00 0.00 79 1020.8
20260503184820 76 158 2.0 9.0 0.00 0.00 0.00 79 1020.8
20260503184328 76 268 5.0 14.0 0.00 0.00 0.00 79 1020.9
20260503183835 76 227 6.0 14.0 0.00 0.00 0.00 80 1021.0
20260503183321 76 265 5.0 11.0 0.00 0.00 0.00 80 1021.0
20260503182828 76 212 7.0 11.0 0.00 0.00 0.00 81 1021.1
20260503182329 75 236 6.0 12.0 0.00 0.00 0.00 81 1021.2
20260503181836 75 184 5.0 10.0 0.00 0.00 0.00 81 1021.3
20260503181349 75 268 6.0 10.0 0.00 0.00 0.00 82 1021.3
20260503180826 75 223 6.0 11.0 0.00 0.00 0.00 82 1021.4
20260503180333 75 215 6.0 11.0 0.00 0.00 0.00 82 1021.5
20260503175820 75 184 5.0 10.0 0.00 0.00 0.00 82 1021.7
20260503175323 75 234 5.0 10.0 0.00 0.00 0.00 83 1021.7
20260503174829 75 230 3.0 13.0 0.00 0.00 0.00 83 1021.8
20260503174334 75 216 5.0 13.0 0.00 0.00 0.00 83 1022.0
20260503173838 74 215 5.0 11.0 0.00 0.00 0.00 84 1022.1
20260503173328 74 217 5.0 10.0 0.00 0.00 0.00 84 1022.2
20260503172833 74 232 3.0 10.0 0.00 0.00 0.00 84 1022.3
20260503172317 74 215 6.0 12.0 0.00 0.00 0.00 84 1022.4
20260503171824 74 144 6.0 12.0 0.00 0.00 0.00 85 1022.4
20260503171326 74 229 4.0 12.0 0.00 0.00 0.00 85 1022.5
20260503170859 74 228 5.0 12.0 0.00 0.00 0.00 85 1022.5
20260503170344 74 252 7.0 10.0 0.00 0.00 0.00 86 1022.6
20260503150822 69 238 6.0 10.0 0.00 0.00 0.00 89 1022.8
20260503150327 68 236 3.0 9.0 0.00 0.00 0.00 89 1022.8
20260503131327 57 218 0.0 4.0 0.00 0.00 0.00 88 1022.3
20260503130859 56 218 2.0 4.0 0.00 0.00 0.00 88 1022.2
20260503130344 56 215 1.0 2.0 0.00 0.00 0.00 87 1022.2
20260503051327 56 38 0.0 0.0 0.00 0.09 0.00 85 1020.9
20260503050829 57 38 0.0 0.0 0.00 0.09 0.00 84 1020.9
20260503050330 57 38 0.0 2.0 0.00 0.09 0.00 84 1020.8
20260503045846 57 38 0.0 2.0 0.00 0.09 0.00 84 1020.8
20260503045318 57 38 2.0 2.0 0.00 0.12 0.09 84 1020.8
20260503044849 57 38 2.0 2.0 0.00 0.12 0.09 84 1020.7
20260503044329 58 38 2.0 2.0 0.00 0.12 0.09 84 1020.8
20260503043835 58 38 1.0 2.0 0.00 0.12 0.09 85 1020.8
20260503043320 58 38 2.0 3.0 0.00 0.12 0.09 85 1020.8
20260503042848 58 38 2.0 3.0 0.00 0.12 0.09 85 1020.8
20260503042350 58 38 2.0 2.0 0.00 0.12 0.09 85 1020.7
20260503041833 58 38 2.0 2.0 0.00 0.12 0.09 85 1020.7
20260503041336 58 38 2.0 2.0 0.00 0.12 0.09 85 1020.7
20260503040819 58 38 2.0 2.0 0.00 0.12 0.09 85 1020.7
20260503040330 59 38 1.0 2.0 0.00 0.12 0.09 85 1020.7
20260503035833 59 38 1.0 3.0 0.00 0.12 0.09 85 1020.6
20260503034838 59 38 2.0 3.0 0.00 0.15 0.09 85 1020.6
20260503034348 59 38 2.0 3.0 0.00 0.15 0.09 85 1020.6
20260503033833 59 38 2.0 3.0 0.00 0.15 0.09 85 1020.6
20260503033318 59 38 2.0 3.0 0.00 0.15 0.09 85 1020.6
20260503032839 59 38 2.0 3.0 0.00 0.15 0.09 85 1020.5
20260503032323 59 38 2.0 3.0 0.00 0.15 0.09 85 1020.5
20260503031825 59 39 2.0 3.0 0.00 0.15 0.09 85 1020.4
20260503031359 59 39 1.0 2.0 0.00 0.15 0.09 85 1020.3
20260503030822 59 39 0.0 0.0 0.00 0.15 0.09 85 1020.3
20260503030348 59 39 0.0 0.0 0.00 0.15 0.09 85 1020.3
20260503025839 60 39 0.0 0.0 0.00 0.15 0.09 85 1020.3
20260503025342 60 39 0.0 0.0 0.00 0.18 0.09 85 1020.2
20260503024826 60 40 0.0 0.0 0.00 0.18 0.09 85 1020.3
20260503024328 60 40 0.0 1.0 0.00 0.18 0.09 85 1020.2
20260503023831 60 40 0.0 1.0 0.00 0.18 0.09 85 1020.2
20260503023334 60 40 0.0 1.0 0.00 0.18 0.09 85 1020.2
20260503022907 61 40 0.0 1.0 0.00 0.18 0.09 85 1020.1
20260503022325 61 40 0.0 0.0 0.00 0.18 0.09 85 1020.0
20260503021829 61 40 0.0 0.0 0.00 0.18 0.09 85 1020.1
20260503021353 61 40 0.0 0.0 0.00 0.18 0.09 85 1019.9